Карточка аэропорта URRP

Внимание!
Информация на этой странице в стадии наполнения.
Если вы не увидели какой-то информации, или заметили неточность - пожалуйста сообщите нам!
Спасибо!
Команда RU-STAFF
Название аэропортаПлатов
Название аэропорта (англ.)Platov
Превышение282 ft. (86 m.)
Координаты47°29.634', 39°55.482'
Высота перехода3500 ft
Эшелон переходаFL50 (QNH >= 996); FL60 (QNH < 996)
Коды ответчика1001-1017
Зона ОрВДРостов-на-Дону РПИ (URRV)
Данные METARURRP 310600Z 12002MPS 4000 BR SCT040 00/00 Q1011 R23/CLRD70 NOSIG RMK QFE750/1000
Проноз погоды (TAF)URRP 310456Z 3106/0106 15003G12MPS 6000 FEW005 BKN016 TEMPO 3106/3109 18003MPS 0300 -FZDZ FZFG OVC002 BECMG 3109/3110 22003G12MPS SCT016 SCT030CB TEMPO 3110/3115 25003G10MPS -SHRA FEW007 BKN020CB BECMG 3115/3118 27003G12MPS TEMPO 3118/0106 31003G10MPS -SHRASN FEW005 BKN020CB
NOTAMshow/hide NOTAM
AWOS   TABLE

Информация о ВПП

ВПП Длина ВПП (м.) Покрытие Курс ВПП Частота ILS
053900Цементобетон46111.5
233900Цементобетон226110.9

Диспетчерские позиции

Позывной Наименование органа УВД Частота
URRP_APPПлатов-подход128.2
URRP_DELПлатов-деливери127.1
URRP_R_APPПлатов - Круг121.2
URRP_TWRПлатов-Вышка119.7
URRP_GNDПлатов - руление119.0



Спутниковое изображение